QIANFAN-54 (62255 NORAD) Tracking and Keplerian Element Data

This shows tracking and keplerian element data for the satellite.

Feedback or suggestion? Click here.




ElementValue
Catalog62255
NameQIANFAN-54
Epoch Orbit5695
Epoch Day34.7867852
Epoch Year2025
RAAN73.1664
Inclination88.9888
Eccentricity0.0015141
Argument of Perigee32.062
Mean Anonmoly328.1489
Mean Motion14.22406841
Decay Rate3.68E-06
L11 62255U 24232U 25034.78678520 .00000368 00000+0 15861-3 0 9990
L22 62255 88.9888 73.1664 0015141 32.0620 328.1489 14.22406841 56955



Live tracking and technical data element details for QIANFAN-54 (NORAD 62255). QIANFAN-54 can be tracked NOW for your location showing map with azimuth and elevation plus other details from your city location.







IsCatalogInMostPopularTable: catalog: 62255, numindb: 25
Update: records affected: 1



GetName: 62255 QIANFAN-54

Hit Count: updated at: Sun, 18 May 2025 22:53:19 GMT